Time,TemperatureF,DewpointF,PressureIn,WindDirection,WindDirectionDegrees,WindSpeedMPH,WindSpeedGustMPH,Humidity,HourlyPrecipIn,Conditions,Clouds,dailyrainin,SoftwareType,DateUTC
2017-02-25 00:02:00,42.6,36.2,30.18,NE,38,0.0,19.0,78,0.00,,,0.00,Wunderground v.1.15,2017-02-25 08:02:00,
2017-02-25 00:08:00,42.6,36.2,30.18,NE,34,0.0,19.0,78,0.00,,,0.00,Wunderground v.1.15,2017-02-25 08:08:00,
2017-02-25 00:13:00,42.5,36.1,30.18,North,355,1.0,19.0,78,0.00,,,0.00,Wunderground v.1.15,2017-02-25 08:13:00,
2017-02-25 00:19:00,42.5,35.8,30.18,NNW,333,2.0,19.0,77,0.00,,,0.01,Wunderground v.1.15,2017-02-25 08:19:00,
2017-02-25 00:25:00,42.3,34.9,30.18,NNW,342,3.0,19.0,75,0.00,,,0.01,Wunderground v.1.15,2017-02-25 08:25:00,
2017-02-25 00:31:00,42.2,34.8,30.18,NNW,331,3.0,19.0,75,0.00,,,0.01,Wunderground v.1.15,2017-02-25 08:31:00,
2017-02-25 00:37:00,41.6,32.9,30.18,NW,313,0.0,19.0,71,0.00,,,0.01,Wunderground v.1.15,2017-02-25 08:37:00,
2017-02-25 00:43:00,41.5,32.4,30.18,NW,313,0.0,19.0,70,0.00,,,0.01,Wunderground v.1.15,2017-02-25 08:43:00,
2017-02-25 00:48:00,41.5,32.4,30.18,NW,313,1.0,19.0,70,0.00,,,0.01,Wunderground v.1.15,2017-02-25 08:48:00,
2017-02-25 00:54:00,41.6,33.2,30.18,NW,313,1.0,19.0,72,0.00,,,0.01,Wunderground v.1.15,2017-02-25 08:54:00,
2017-02-25 01:00:00,41.5,33.5,30.18,NW,313,0.0,19.0,73,0.00,,,0.01,Wunderground v.1.15,2017-02-25 09:00:00,
2017-02-25 01:06:00,41.5,34.2,30.18,NW,313,0.0,19.0,75,0.00,,,0.01,Wunderground v.1.15,2017-02-25 09:06:00,
2017-02-25 01:12:00,41.5,34.5,30.18,North,9,0.0,19.0,76,0.00,,,0.01,Wunderground v.1.15,2017-02-25 09:12:00,
2017-02-25 01:18:00,41.5,34.5,30.18,North,9,0.0,19.0,76,0.00,,,0.01,Wunderground v.1.15,2017-02-25 09:18:00,
2017-02-25 01:23:00,41.5,34.8,30.18,North,9,0.0,19.0,77,0.00,,,0.01,Wunderground v.1.15,2017-02-25 09:23:00,
2017-02-25 01:29:00,41.4,34.7,30.18,North,9,0.0,19.0,77,0.00,,,0.01,Wunderground v.1.15,2017-02-25 09:29:00,
2017-02-25 01:35:00,41.5,34.8,30.18,North,9,1.0,19.0,77,0.00,,,0.01,Wunderground v.1.15,2017-02-25 09:35:00,
2017-02-25 01:41:00,41.6,34.9,30.18,North,9,0.0,19.0,77,0.00,,,0.01,Wunderground v.1.15,2017-02-25 09:41:00,
2017-02-25 01:47:00,41.6,34.9,30.17,North,9,0.0,19.0,77,0.00,,,0.01,Wunderground v.1.15,2017-02-25 09:47:00,
2017-02-25 01:53:00,41.6,35.2,30.17,North,9,0.0,19.0,78,0.00,,,0.01,Wunderground v.1.15,2017-02-25 09:53:00,
2017-02-25 01:58:00,41.6,34.9,30.17,North,9,0.0,19.0,77,0.00,,,0.01,Wunderground v.1.15,2017-02-25 09:58:00,
2017-02-25 02:04:00,41.6,34.9,30.17,North,9,0.0,19.0,77,0.00,,,0.01,Wunderground v.1.15,2017-02-25 10:04:00,
2017-02-25 02:10:00,41.5,35.2,30.17,North,9,0.0,19.0,78,0.00,,,0.01,Wunderground v.1.15,2017-02-25 10:10:00,
2017-02-25 02:16:00,41.5,35.2,30.17,North,9,0.0,19.0,78,0.00,,,0.01,Wunderground v.1.15,2017-02-25 10:16:00,
2017-02-25 02:22:00,41.6,35.2,30.16,North,9,0.0,19.0,78,0.00,,,0.01,Wunderground v.1.15,2017-02-25 10:22:00,
2017-02-25 02:27:00,41.6,35.2,30.16,North,9,0.0,19.0,78,0.00,,,0.01,Wunderground v.1.15,2017-02-25 10:27:00,
2017-02-25 02:33:00,41.6,35.2,30.16,North,9,0.0,19.0,78,0.00,,,0.01,Wunderground v.1.15,2017-02-25 10:33:00,
2017-02-25 02:39:00,41.7,35.3,30.16,North,9,0.0,19.0,78,0.00,,,0.01,Wunderground v.1.15,2017-02-25 10:39:00,
2017-02-25 02:44:00,41.8,35.4,30.16,North,9,0.0,19.0,78,0.00,,,0.01,Wunderground v.1.15,2017-02-25 10:44:00,
2017-02-25 02:50:00,41.9,35.5,30.15,North,9,0.0,19.0,78,0.00,,,0.01,Wunderground v.1.15,2017-02-25 10:50:00,
2017-02-25 02:56:00,41.9,35.5,30.15,North,9,0.0,19.0,78,0.00,,,0.01,Wunderground v.1.15,2017-02-25 10:56:00,
2017-02-25 03:02:00,41.9,35.5,30.15,North,9,0.0,19.0,78,0.00,,,0.01,Wunderground v.1.15,2017-02-25 11:02:00,
2017-02-25 03:08:00,42.0,35.0,30.15,North,9,0.0,19.0,76,0.00,,,0.01,Wunderground v.1.15,2017-02-25 11:08:00,
2017-02-25 03:14:00,41.9,34.2,30.15,North,9,0.0,19.0,74,0.00,,,0.01,Wunderground v.1.15,2017-02-25 11:14:00,
2017-02-25 03:19:00,41.8,33.8,30.15,North,9,0.0,19.0,73,0.00,,,0.01,Wunderground v.1.15,2017-02-25 11:19:00,
2017-02-25 03:25:00,41.5,32.8,30.15,North,9,0.0,19.0,71,0.00,,,0.01,Wunderground v.1.15,2017-02-25 11:25:00,
2017-02-25 03:31:00,41.5,31.4,30.14,North,9,1.0,19.0,67,0.00,,,0.01,Wunderground v.1.15,2017-02-25 11:31:00,
2017-02-25 03:37:00,41.6,31.1,30.15,North,9,2.0,19.0,66,0.00,,,0.01,Wunderground v.1.15,2017-02-25 11:37:00,
2017-02-25 03:43:00,41.8,30.5,30.15,North,9,2.0,19.0,64,0.00,,,0.01,Wunderground v.1.15,2017-02-25 11:43:00,
2017-02-25 03:49:00,41.9,29.0,30.15,North,9,1.0,19.0,60,0.00,,,0.01,Wunderground v.1.15,2017-02-25 11:49:00,
2017-02-25 03:55:00,42.0,27.4,30.15,North,9,0.0,19.0,56,0.00,,,0.01,Wunderground v.1.15,2017-02-25 11:55:00,
2017-02-25 04:00:00,42.1,26.6,30.15,North,9,1.0,1.0,54,0.00,,,0.01,Wunderground v.1.15,2017-02-25 12:00:00,
2017-02-25 04:06:00,42.0,26.1,30.15,North,9,0.0,19.0,53,0.00,,,0.01,Wunderground v.1.15,2017-02-25 12:06:00,
2017-02-25 04:12:00,41.9,26.9,30.15,North,9,0.0,19.0,55,0.00,,,0.01,Wunderground v.1.15,2017-02-25 12:12:00,
2017-02-25 04:18:00,42.0,27.0,30.14,North,9,0.0,19.0,55,0.00,,,0.01,Wunderground v.1.15,2017-02-25 12:18:00,
2017-02-25 04:24:00,41.9,26.9,30.14,North,9,0.0,19.0,55,0.00,,,0.01,Wunderground v.1.15,2017-02-25 12:24:00,
2017-02-25 04:30:00,41.9,26.0,30.14,North,9,0.0,19.0,53,0.00,,,0.01,Wunderground v.1.15,2017-02-25 12:30:00,
2017-02-25 04:35:00,41.9,25.5,30.14,North,9,0.0,19.0,52,0.00,,,0.01,Wunderground v.1.15,2017-02-25 12:35:00,
2017-02-25 04:41:00,41.8,25.4,30.15,North,9,0.0,19.0,52,0.00,,,0.01,Wunderground v.1.15,2017-02-25 12:41:00,
2017-02-25 04:47:00,41.8,25.9,30.14,North,9,0.0,19.0,53,0.00,,,0.01,Wunderground v.1.15,2017-02-25 12:47:00,
2017-02-25 04:53:00,41.8,25.4,30.15,North,9,1.0,19.0,52,0.00,,,0.01,Wunderground v.1.15,2017-02-25 12:53:00,
2017-02-25 04:59:00,41.7,26.3,30.15,North,9,1.0,19.0,54,0.00,,,0.01,Wunderground v.1.15,2017-02-25 12:59:00,
2017-02-25 05:05:00,41.6,27.1,30.15,North,9,0.0,19.0,56,0.00,,,0.01,Wunderground v.1.15,2017-02-25 13:05:00,
2017-02-25 05:11:00,41.6,27.9,30.14,North,9,0.0,19.0,58,0.00,,,0.01,Wunderground v.1.15,2017-02-25 13:11:00,
2017-02-25 05:16:00,41.5,26.5,30.15,North,9,1.0,19.0,55,0.00,,,0.01,Wunderground v.1.15,2017-02-25 13:16:00,
2017-02-25 05:22:00,41.5,25.2,30.15,North,9,3.0,19.0,52,0.00,,,0.01,Wunderground v.1.15,2017-02-25 13:22:00,
2017-02-25 05:28:00,41.5,24.2,30.15,North,9,3.0,19.0,50,0.00,,,0.01,Wunderground v.1.15,2017-02-25 13:28:00,
2017-02-25 05:34:00,41.5,23.2,30.15,North,9,2.0,19.0,48,0.00,,,0.01,Wunderground v.1.15,2017-02-25 13:34:00,
2017-02-25 05:40:00,41.5,21.7,30.14,North,9,1.0,19.0,45,0.00,,,0.01,Wunderground v.1.15,2017-02-25 13:40:00,
2017-02-25 05:46:00,41.5,21.2,30.15,North,9,2.0,19.0,44,0.00,,,0.01,Wunderground v.1.15,2017-02-25 13:46:00,
2017-02-25 05:52:00,41.4,21.1,30.14,North,9,2.0,19.0,44,0.00,,,0.01,Wunderground v.1.15,2017-02-25 13:52:00,
2017-02-25 05:57:00,41.3,20.5,30.15,North,9,3.0,19.0,43,0.00,,,0.01,Wunderground v.1.15,2017-02-25 13:57:00,
2017-02-25 06:03:00,41.3,21.0,30.15,North,9,5.0,19.0,44,0.00,,,0.01,Wunderground v.1.15,2017-02-25 14:03:00,
2017-02-25 06:09:00,41.3,20.5,30.15,North,9,5.0,19.0,43,0.00,,,0.01,Wunderground v.1.15,2017-02-25 14:09:00,
2017-02-25 06:15:00,41.4,19.4,30.15,North,9,4.0,19.0,41,0.00,,,0.01,Wunderground v.1.15,2017-02-25 14:15:00,
2017-02-25 06:21:00,41.6,17.8,30.15,North,9,6.0,19.0,38,0.00,,,0.01,Wunderground v.1.15,2017-02-25 14:21:00,
2017-02-25 06:27:00,41.6,17.2,30.15,North,9,6.0,19.0,37,0.00,,,0.01,Wunderground v.1.15,2017-02-25 14:27:00,
2017-02-25 06:33:00,41.7,15.4,30.14,North,9,2.0,19.0,34,0.00,,,0.01,Wunderground v.1.15,2017-02-25 14:33:00,
2017-02-25 06:38:00,41.9,13.4,30.14,North,9,3.0,19.0,31,0.00,,,0.01,Wunderground v.1.15,2017-02-25 14:38:00,
2017-02-25 06:44:00,42.0,12.0,30.14,North,9,4.0,19.0,29,0.00,,,0.01,Wunderground v.1.15,2017-02-25 14:44:00,
2017-02-25 06:50:00,42.2,10.6,30.14,North,9,2.0,19.0,27,0.00,,,0.01,Wunderground v.1.15,2017-02-25 14:50:00,
2017-02-25 06:56:00,42.2,9.7,30.14,ENE,58,4.0,19.0,26,0.00,,,0.01,Wunderground v.1.15,2017-02-25 14:56:00,